| DS18B20 | SHTC3 | ||||||
|---|---|---|---|---|---|---|---|
| ID | Date d/m/Y & Time | data1 สูง | data2 ต่ำ | data3 นอก | temp pcb | hum pcb | Time |
| 7312 | 30/03/2026 21:47:50 | 29.8  | 29.8  | 28.6  | 29.6  | 72.4  | 21:47 |
| 7311 | 30/03/2026 21:43:09 | 29.8  | 29.8  | 28.6  | 29.6  | 72.4  | 21:43 |
| 7310 | 30/03/2026 21:38:28 | 29.8  | 29.8  | 28.6  | 29.6  | 72.3  | 21:38 |
| 7309 | 30/03/2026 21:33:45 | 29.8  | 29.8  | 28.7  | 29.7  | 72.3  | 21:33 |
| 7308 | 30/03/2026 21:29:03 | 29.9  | 29.8  | 28.6  | 29.7  | 72.4  | 21:29 |
| 7307 | 30/03/2026 21:24:22 | 29.8  | 29.8  | 28.7  | 29.8  | 72.4  | 21:24 |
| 7306 | 30/03/2026 21:19:40 | 29.9  | 29.8  | 28.7  | 29.8  | 72.4  | 21:19 |
| 7305 | 30/03/2026 21:14:58 | 29.9  | 29.9  | 28.7  | 29.9  | 72.3  | 21:14 |
| 7304 | 30/03/2026 21:10:16 | 29.9  | 29.9  | 28.7  | 29.8  | 72.3  | 21:10 |
| 7303 | 30/03/2026 21:05:34 | 29.9  | 29.9  | 28.7  | 29.8  | 72.2  | 21:05 |
| 7302 | 30/03/2026 21:00:53 | 29.9  | 29.9  | 28.7  | 29.8  | 72.4  | 21:00 |
| 7301 | 30/03/2026 20:56:11 | 29.9  | 29.9  | 28.7  | 29.9  | 72.3  | 20:56 |
| 7300 | 30/03/2026 20:51:29 | 29.9  | 29.9  | 28.6  | 30.0  | 72.3  | 20:51 |
| 7299 | 30/03/2026 20:46:47 | 29.9  | 29.9  | 28.7  | 29.7  | 72.3  | 20:46 |
| 7298 | 30/03/2026 20:42:05 | 30.0  | 30.0  | 28.7  | 29.9  | 72.3  | 20:42 |
| 7297 | 30/03/2026 20:37:22 | 30.0  | 30.0  | 28.7  | 30.0  | 72.2  | 20:37 |
| 7296 | 30/03/2026 20:32:40 | 30.0  | 30.0  | 28.7  | 29.8  | 72.2  | 20:32 |
| 7295 | 30/03/2026 20:27:58 | 30.0  | 30.1  | 28.8  | 29.8  | 72.3  | 20:27 |
| 7294 | 30/03/2026 20:23:16 | 30.0  | 30.1  | 28.9  | 29.9  | 72.1  | 20:23 |
| 7293 | 30/03/2026 20:18:34 | 30.1  | 30.1  | 28.8  | 30.1  | 72.3  | 20:18 |
| 7292 | 30/03/2026 20:13:53 | 30.0  | 30.1  | 28.8  | 29.9  | 72.3  | 20:13 |
| 7291 | 30/03/2026 20:09:09 | 30.1  | 30.1  | 28.8  | 30.0  | 72.2  | 20:09 |
| 7290 | 30/03/2026 20:04:27 | 30.1  | 30.1  | 28.7  | 29.9  | 72.2  | 20:04 |
| 7289 | 30/03/2026 19:59:44 | 30.1  | 30.1  | 28.8  | 30.2  | 72.2  | 19:59 |